Location: Newark
(23.1300°N, 73.6109°E)
Time: 17:20:19
(UTC+00:00)

NOAA 18 - Pass Details

Date: 07 July 2020
Orbit: 839 x 862 km, 99.0° (Epoch: 05 August)

Event Time Altitude Azimuth Distance (km) Brightness Sun altitude
Exits shadow 15:19:28 24° 95° (E) 1,691 6.3 -17.6°
Maximum altitude 15:20:50 27° 71° (ENE) 1,589 6.3 -17.9°
Drops below altitude 10° 15:25:24 10° 16° (NNE) 2,491 7.9 -18.7°
Sets 15:28:06 0° 4° (N) 3,427 8.8 -19.2°
